Voltar ao catálogo

THORAD AGENA D DEB

AtivoPO
NORAD 4737·DEBRIS·🇺🇸 United States

Lançado Apr 8, 1970 de Vandenberg Space Force Base

Loading…

Próximas Passagens (próximas 24 horas)

TLE

AtualizadoSource: Space-Track

Época: Sep 14, 2026, 10:05 UTC

1 04737U 70025CL  26257.42067625  .00002199  00000-0  81553-3 0  9995
2 04737  99.0577 251.6587 0023566 179.8826 180.2366 14.33166217860382

Acompanhe THORAD AGENA D DEB em tempo real com AllMySat

Download on the App Store